Location: Newark
(46.7000°N, 60.6000°W)
Time: 06:07:19
(UTC+00:00)

Transit 2A Rocket - Pass Details

Date: 29 October 2020
Orbit: 588 x 914 km, 66.7° (Epoch: 27 November)

Event Time Altitude Azimuth Distance (km) Brightness Sun altitude
Rises 20:20:45 0° 329° (NNW) 3,364 8.4 3.9°
Reaches altitude 10° 20:23:47 10° 344° (NNW) 2,369 7.5 3.5°
Maximum altitude 20:28:04 23° 36° (NE) 1,551 6.2 2.8°
Drops below altitude 10° 20:32:03 10° 89° (E) 2,184 6.8 2.2°
Sets 20:34:43 0° 104° (ESE) 3,040 7.6 1.7°
